This demonstration page uses our WeatherBlox Daily Observations layout. Learn more.

Left ArrowRight Arrow

53.62937, 11.41316

Hourly Observations for June 26, 2019

Temp ( °F °C ) Dew Point ( °F °C ) Humidity (%) Winds ( mph kmh ) Pressure ( in mb ) Visibility ( mi km ) Precip ( " mm )
6:50 am 06:50 Mostly Sunny 72 22 66 19 83 83 Calm 30.06 1018 7 11 N/A
7:20 am 07:20 Mostly Sunny 75 24 64 18 69 69 VRB 1 2 30.06 1018 7 11 N/A
7:50 am 07:50 Mostly Sunny 77 25 64 18 65 65 VRB 2 4 30.06 1018 7 11 N/A
8:20 am 08:20 Mostly Sunny 79 26 66 19 65 65 SW 5 7 30.06 1018 7 11 N/A
8:50 am 08:50 Mostly Sunny 81 27 68 20 66 66 WSW 6 9 30.06 1018 7 11 N/A
9:20 am 09:20 Mostly Sunny 81 27 66 19 62 62 W 7 11 30.09 1019 7 11 N/A
9:50 am 09:50 Mostly Sunny 82 28 68 20 62 62 W 7 11 30.09 1019 7 11 N/A
10:20 am 10:20 Mostly Sunny 84 29 68 20 58 58 W 8 13 30.09 1019 7 11 N/A
10:50 am 10:50 Mostly Sunny 84 29 66 19 55 55 W 9 15 30.09 1019 7 11 N/A
11:20 am 11:20 Mostly Sunny 86 30 66 19 52 52 W 12 19 30.09 1019 7 11 N/A
11:50 am 11:50 Mostly Sunny 86 30 68 20 55 55 W 13 20 30.09 1019 7 11 N/A
12:20 pm 12:20 Mostly Sunny 86 30 66 19 52 52 W 12 19 30.12 1020 7 11 N/A
12:50 pm 12:50 Mostly Sunny 86 30 68 20 55 55 W 12 19 30.12 1020 7 11 N/A
1:20 pm 13:20 Mostly Sunny 86 30 68 20 55 55 W 12 19 30.12 1020 7 11 N/A
1:50 pm 13:50 Mostly Sunny 84 29 68 20 58 58 W 10 17 30.12 1020 30 48 N/A
2:20 pm 14:20 Mostly Sunny 84 29 66 19 55 55 W 12 19 30.12 1020 30 48 N/A
2:50 pm 14:50 Mostly Sunny 84 29 64 18 51 51 W 12 19 30.12 1020 30 48 N/A
3:20 pm 15:20 Mostly Sunny 84 29 64 18 51 51 W 12 19 30.15 1021 30 48 N/A
3:50 pm 15:50 Mostly Sunny 82 28 64 18 55 55 W 12 19 30.15 1021 30 48 N/A
4:20 pm 16:20 Mostly Sunny 82 28 63 17 51 51 WNW 10 17 30.15 1021 30 48 N/A
4:50 pm 16:50 Mostly Sunny 81 27 63 17 54 54 WNW 9 15 30.15 1021 30 48 N/A
5:20 pm 17:20 Mostly Sunny 81 27 59 15 48 48 WNW 8 13 30.15 1021 30 48 N/A
5:50 pm 17:50 Mostly Sunny 79 26 59 15 51 51 W 10 17 30.15 1021 30 48 N/A
6:20 pm 18:20 Mostly Sunny 79 26 59 15 51 51 WNW 10 17 30.15 1021 7 11 N/A
6:50 pm 18:50 Mostly Sunny 75 24 57 14 54 54 W 12 19 30.18 1022 7 11 N/A
7:20 pm 19:20 Mostly Sunny 73 23 57 14 57 57 W 10 17 30.18 1022 7 11 N/A
7:50 pm 19:50 Mostly Sunny 72 22 57 14 61 61 WNW 9 15 30.18 1022 7 11 N/A
8:20 pm 20:20 Mostly Sunny 68 20 57 14 69 69 W 8 13 30.18 1022 7 11 N/A
8:50 pm 20:50 Mostly Sunny 66 19 55 13 68 68 WNW 8 13 30.21 1023 7 11 N/A

Powered by AerisWeather